| time (UTC) | temp F | wind direction | speed knots | gust knots | rain 1hr in | rain 24hr in | rain mn in | humidity % | barometer mb |
| 20260906140518 | 87 | 113 | 1.7 | 5.2 | 0.00 | 0.00 | 0.00 | 77 | 1013.1 |
| 20260906140038 | 86 | 113 | 1.7 | 3.5 | 0.00 | 0.00 | 0.00 | 79 | 1013.1 |
| 20260906135538 | 85 | 90 | 0.9 | 3.5 | 0.00 | 0.00 | 0.00 | 78 | 1013.2 |
| 20260906135018 | 85 | 90 | 1.7 | 5.2 | 0.00 | 0.00 | 0.00 | 78 | 1013.2 |
| 20260906134538 | 85 | 113 | 0.9 | 2.6 | 0.00 | 0.00 | 0.00 | 81 | 1013.2 |
| 20260906134018 | 84 | 113 | 0.9 | 2.6 | 0.00 | 0.00 | 0.00 | 81 | 1013.3 |
| 20260906133518 | 84 | 90 | 1.7 | 3.5 | 0.00 | 0.00 | 0.00 | 83 | 1013.3 |
| 20260906133018 | 83 | 113 | 0.9 | 3.5 | 0.00 | 0.00 | 0.00 | 85 | 1013.2 |
| 20260906132518 | 82 | 0.0 | 0.9 | 0.00 | 0.00 | 0.00 | 87 | 1013.1 | |
| 20260906132019 | 81 | 0.0 | 1.7 | 0.00 | 0.00 | 0.00 | 88 | 1013.0 | |
| 20260906131518 | 81 | 0.0 | 1.7 | 0.00 | 0.00 | 0.00 | 89 | 1012.9 | |
| 20260906131018 | 80 | 0.0 | 2.6 | 0.00 | 0.00 | 0.00 | 90 | 1013.0 | |
| 20260906130518 | 79 | 0.0 | 0.9 | 0.00 | 0.00 | 0.00 | 90 | 1012.8 | |
| 20260906130018 | 79 | 0.0 | 0.9 | 0.00 | 0.00 | 0.00 | 92 | 1012.7 | |
| 20260906125518 | 77 | 0.0 | 0.0 | 0.00 | 0.00 | 0.00 | 94 | 1012.8 | |
| 20260906125018 | 76 | 0.0 | 0.0 | 0.00 | 0.00 | 0.00 | 95 | 1012.7 | |
| 20260906124518 | 76 | 0.0 | 0.0 | 0.00 | 0.00 | 0.00 | 96 | 1012.7 | |
| 20260906124018 | 75 | 0.0 | 0.0 | 0.00 | 0.00 | 0.00 | 96 | 1012.7 | |
| 20260906123558 | 74 | 0.0 | 0.0 | 0.00 | 0.00 | 0.00 | 97 | 1012.6 | |
| 20260906123018 | 74 | 0.0 | 0.0 | 0.00 | 0.00 | 0.00 | 97 | 1012.6 | |
| 20260906122518 | 74 | 0.0 | 0.0 | 0.00 | 0.00 | 0.00 | 97 | 1012.6 | |
| 20260906122018 | 73 | 0.0 | 0.0 | 0.00 | 0.00 | 0.00 | 97 | 1012.5 | |
| 20260906121518 | 73 | 0.0 | 0.0 | 0.00 | 0.00 | 0.00 | 97 | 1012.3 | |
| 20260906121038 | 73 | 0.0 | 0.0 | 0.00 | 0.00 | 0.00 | 97 | 1012.3 | |
| 20260906120518 | 73 | 0.0 | 0.0 | 0.00 | 0.00 | 0.00 | 97 | 1012.3 | |
| 20260906120018 | 73 | 0.0 | 0.0 | 0.00 | 0.00 | 0.00 | 96 | 1012.2 | |
| 20260906115518 | 73 | 0.0 | 0.0 | 0.00 | 0.00 | 0.00 | 96 | 1012.2 | |
| 20260906115018 | 73 | 0.0 | 0.0 | 0.00 | 0.00 | 0.00 | 97 | 1012.2 | |
| 20260906114518 | 73 | 0.0 | 0.0 | 0.00 | 0.00 | 0.00 | 97 | 1012.2 | |
| 20260906114018 | 73 | 0.0 | 0.0 | 0.00 | 0.00 | 0.00 | 97 | 1012.1 | |
| 20260906113538 | 73 | 0.0 | 0.0 | 0.00 | 0.00 | 0.00 | 97 | 1012.1 | |
| 20260906113018 | 73 | 0.0 | 0.0 | 0.00 | 0.00 | 0.00 | 97 | 1012.1 | |
| 20260906112519 | 73 | 0.0 | 0.0 | 0.00 | 0.00 | 0.00 | 96 | 1012.0 | |
| 20260906112018 | 73 | 0.0 | 0.0 | 0.00 | 0.00 | 0.00 | 96 | 1012.0 | |
| 20260906111517 | 73 | 0.0 | 0.0 | 0.00 | 0.00 | 0.00 | 97 | 1012.0 | |
| 20260906111020 | 73 | 0.0 | 0.0 | 0.00 | 0.00 | 0.00 | 96 | 1012.0 | |
| 20260906110520 | 73 | 0.0 | 0.0 | 0.00 | 0.00 | 0.00 | 96 | 1012.0 | |
| 20260906110040 | 74 | 0.0 | 0.0 | 0.00 | 0.00 | 0.00 | 96 | 1012.0 | |
| 20260906105559 | 74 | 0.0 | 0.9 | 0.00 | 0.00 | 0.00 | 96 | 1012.0 | |
| 20260906105020 | 74 | 0.0 | 0.0 | 0.00 | 0.00 | 0.00 | 96 | 1012.0 | |
| 20260906104540 | 73 | 0.0 | 0.0 | 0.00 | 0.00 | 0.00 | 96 | 1011.8 | |
| 20260906104019 | 73 | 0.0 | 0.0 | 0.00 | 0.00 | 0.00 | 96 | 1011.8 | |
| 20260906103519 | 74 | 0.0 | 0.0 | 0.00 | 0.00 | 0.00 | 96 | 1011.8 | |
| 20260906103020 | 74 | 0.0 | 0.0 | 0.00 | 0.00 | 0.00 | 96 | 1011.8 | |
| 20260906102519 | 74 | 0.0 | 0.0 | 0.00 | 0.00 | 0.00 | 96 | 1011.8 | |
| 20260906102020 | 74 | 0.0 | 0.0 | 0.00 | 0.00 | 0.00 | 96 | 1011.7 | |
| 20260906101520 | 74 | 0.0 | 0.0 | 0.00 | 0.00 | 0.00 | 96 | 1011.6 | |
| 20260906101019 | 74 | 0.0 | 0.0 | 0.00 | 0.00 | 0.00 | 96 | 1011.5 | |
| 20260906100519 | 74 | 0.0 | 0.9 | 0.00 | 0.00 | 0.00 | 95 | 1011.5 | |
| 20260906100019 | 74 | 0.0 | 0.0 | 0.00 | 0.00 | 0.00 | 95 | 1011.5 | |
| 20260906095539 | 74 | 0.0 | 0.0 | 0.00 | 0.00 | 0.00 | 95 | 1011.4 | |
| 20260906095019 | 74 | 0.0 | 0.0 | 0.00 | 0.00 | 0.00 | 95 | 1011.4 | |
| 20260906094519 | 74 | 0.0 | 0.0 | 0.00 | 0.00 | 0.00 | 95 | 1011.4 | |
| 20260906094019 | 74 | 0.0 | 0.0 | 0.00 | 0.00 | 0.00 | 95 | 1011.4 | |
| 20260906093519 | 74 | 0.0 | 0.0 | 0.00 | 0.00 | 0.00 | 95 | 1011.4 | |
| 20260906093019 | 75 | 0.0 | 0.9 | 0.00 | 0.00 | 0.00 | 95 | 1011.4 | |
| 20260906092519 | 75 | 0.0 | 0.0 | 0.00 | 0.00 | 0.00 | 94 | 1011.4 | |
| 20260906092019 | 75 | 0.0 | 0.0 | 0.00 | 0.00 | 0.00 | 94 | 1011.4 | |
| 20260906091519 | 75 | 0.0 | 0.0 | 0.00 | 0.00 | 0.00 | 93 | 1011.4 | |
| 20260906091019 | 75 | 0.0 | 0.0 | 0.00 | 0.00 | 0.00 | 93 | 1011.4 | |
| 20260906090519 | 75 | 0.0 | 0.0 | 0.00 | 0.00 | 0.00 | 94 | 1011.4 | |
| 20260906090019 | 75 | 0.0 | 0.0 | 0.00 | 0.00 | 0.00 | 93 | 1011.4 | |
| 20260906085520 | 75 | 0.0 | 0.0 | 0.00 | 0.00 | 0.00 | 94 | 1011.3 | |
| 20260906085019 | 75 | 0.0 | 0.9 | 0.00 | 0.00 | 0.00 | 94 | 1011.3 | |
| 20260906084539 | 75 | 0.0 | 0.9 | 0.00 | 0.00 | 0.00 | 94 | 1011.3 | |
| 20260906084019 | 75 | 0.0 | 0.9 | 0.00 | 0.00 | 0.00 | 94 | 1011.3 | |
| 20260906083519 | 75 | 0.0 | 0.0 | 0.00 | 0.00 | 0.00 | 94 | 1011.2 | |
| 20260906083019 | 75 | 0.0 | 0.0 | 0.00 | 0.00 | 0.00 | 93 | 1011.1 | |
| 20260906082519 | 76 | 0.0 | 0.0 | 0.00 | 0.00 | 0.00 | 93 | 1011.1 | |
| 20260906082019 | 76 | 0.0 | 0.0 | 0.00 | 0.00 | 0.00 | 93 | 1011.0 | |
| 20260906081519 | 76 | 0.0 | 0.0 | 0.00 | 0.00 | 0.00 | 93 | 1011.0 | |
| 20260906081019 | 76 | 0.0 | 0.0 | 0.00 | 0.00 | 0.00 | 93 | 1011.0 | |
| 20260906080519 | 76 | 0.0 | 0.0 | 0.00 | 0.00 | 0.00 | 92 | 1011.0 | |
| 20260906080019 | 76 | 0.0 | 0.0 | 0.00 | 0.00 | 0.00 | 92 | 1011.0 | |
| 20260906075519 | 76 | 0.0 | 0.0 | 0.00 | 0.00 | 0.00 | 92 | 1011.1 | |
| 20260906075019 | 76 | 0.0 | 0.0 | 0.00 | 0.00 | 0.00 | 92 | 1011.1 | |
| 20260906074519 | 76 | 0.0 | 0.0 | 0.00 | 0.00 | 0.00 | 92 | 1011.1 | |
| 20260906074039 | 77 | 0.0 | 0.0 | 0.00 | 0.00 | 0.00 | 91 | 1011.1 | |
| 20260906073539 | 77 | 0.0 | 0.0 | 0.00 | 0.00 | 0.00 | 91 | 1011.2 | |
| 20260906073059 | 77 | 0.0 | 0.0 | 0.00 | 0.00 | 0.00 | 90 | 1011.2 | |
| 20260906072519 | 78 | 0.0 | 0.0 | 0.00 | 0.00 | 0.00 | 90 | 1011.3 | |
| 20260906072019 | 78 | 0.0 | 0.0 | 0.00 | 0.00 | 0.00 | 88 | 1011.4 | |
| 20260906071519 | 79 | 0.0 | 0.9 | 0.00 | 0.00 | 0.00 | 87 | 1011.3 | |
| 20260906071019 | 80 | 225 | 0.9 | 2.6 | 0.00 | 0.00 | 0.00 | 85 | 1011.3 |
| 20260906070519 | 80 | 0.0 | 1.7 | 0.00 | 0.00 | 0.00 | 85 | 1011.4 | |
| 20260906070019 | 80 | 0.0 | 2.6 | 0.00 | 0.00 | 0.00 | 85 | 1011.4 | |
| 20260906065519 | 80 | 225 | 0.9 | 2.6 | 0.00 | 0.00 | 0.00 | 84 | 1011.4 |
| 20260906065019 | 80 | 0.0 | 0.9 | 0.00 | 0.00 | 0.00 | 84 | 1011.4 | |
| 20260906064519 | 80 | 0.0 | 1.7 | 0.00 | 0.00 | 0.00 | 84 | 1011.5 | |
| 20260906064019 | 80 | 225 | 0.9 | 3.5 | 0.00 | 0.00 | 0.00 | 84 | 1011.5 |
| 20260906063519 | 80 | 0.0 | 1.7 | 0.00 | 0.00 | 0.00 | 85 | 1011.5 | |
| 20260906063019 | 80 | 0.0 | 0.9 | 0.00 | 0.00 | 0.00 | 84 | 1011.6 | |
| 20260906062519 | 80 | 203 | 0.9 | 2.6 | 0.00 | 0.00 | 0.00 | 84 | 1011.6 |
| 20260906062019 | 80 | 203 | 0.9 | 3.5 | 0.00 | 0.00 | 0.00 | 84 | 1011.6 |
| 20260906061519 | 80 | 0.0 | 0.9 | 0.00 | 0.00 | 0.00 | 83 | 1011.6 | |
| 20260906061019 | 81 | 225 | 0.9 | 1.7 | 0.00 | 0.00 | 0.00 | 83 | 1011.7 |
| 20260906060519 | 81 | 0.0 | 0.9 | 0.00 | 0.00 | 0.00 | 82 | 1011.8 | |
| 20260906060019 | 81 | 0.0 | 1.7 | 0.00 | 0.00 | 0.00 | 82 | 1011.9 | |
| 20260906055519 | 81 | 225 | 0.9 | 3.5 | 0.00 | 0.00 | 0.00 | 81 | 1011.9 |
| 20260906055018 | 82 | 0.0 | 3.5 | 0.00 | 0.00 | 0.00 | 81 | 1012.0 | |
| 20260906054519 | 82 | 180 | 0.9 | 3.5 | 0.00 | 0.00 | 0.00 | 81 | 1012.0 |
| 20260906054019 | 81 | 180 | 0.9 | 2.6 | 0.00 | 0.00 | 0.00 | 81 | 1012.0 |
| 20260906053518 | 82 | 180 | 0.9 | 1.7 | 0.00 | 0.00 | 0.00 | 81 | 1011.9 |
| 20260906053019 | 82 | 0.0 | 1.7 | 0.00 | 0.00 | 0.00 | 81 | 1011.9 | |
| 20260906052518 | 82 | 0.0 | 2.6 | 0.00 | 0.00 | 0.00 | 80 | 1011.9 | |
| 20260906052019 | 82 | 180 | 0.9 | 1.7 | 0.00 | 0.00 | 0.00 | 80 | 1011.9 |
| 20260906051519 | 82 | 180 | 0.9 | 2.6 | 0.00 | 0.00 | 0.00 | 79 | 1011.9 |
| 20260906051019 | 82 | 180 | 0.9 | 1.7 | 0.00 | 0.00 | 0.00 | 80 | 1011.8 |
| 20260906050518 | 83 | 180 | 0.9 | 2.6 | 0.00 | 0.00 | 0.00 | 79 | 1011.8 |
| 20260906050018 | 83 | 180 | 0.9 | 2.6 | 0.00 | 0.00 | 0.00 | 79 | 1011.8 |
| 20260906045559 | 83 | 0.0 | 1.7 | 0.00 | 0.00 | 0.00 | 78 | 1011.7 | |
| 20260906045019 | 84 | 180 | 0.9 | 1.7 | 0.00 | 0.00 | 0.00 | 77 | 1011.7 |
| 20260906044519 | 84 | 180 | 0.9 | 2.6 | 0.00 | 0.00 | 0.00 | 77 | 1011.6 |
| 20260906044019 | 84 | 180 | 0.9 | 2.6 | 0.00 | 0.00 | 0.00 | 77 | 1011.6 |
| 20260906043519 | 84 | 0.0 | 0.9 | 0.00 | 0.00 | 0.00 | 77 | 1011.6 | |
| 20260906043039 | 84 | 180 | 0.9 | 2.6 | 0.00 | 0.00 | 0.00 | 76 | 1011.6 |
| 20260906042519 | 85 | 180 | 1.7 | 3.5 | 0.00 | 0.00 | 0.00 | 76 | 1011.7 |
| 20260906042019 | 85 | 180 | 1.7 | 3.5 | 0.00 | 0.00 | 0.00 | 76 | 1011.7 |
| 20260906041519 | 85 | 180 | 1.7 | 4.3 | 0.00 | 0.00 | 0.00 | 76 | 1011.7 |
| 20260906041019 | 85 | 180 | 0.9 | 2.6 | 0.00 | 0.00 | 0.00 | 76 | 1011.7 |
| 20260906040519 | 85 | 203 | 1.7 | 3.5 | 0.00 | 0.00 | 0.00 | 75 | 1011.8 |
| 20260906040019 | 85 | 180 | 2.6 | 5.2 | 0.00 | 0.00 | 0.00 | 75 | 1011.9 |
| 20260906035519 | 85 | 203 | 0.9 | 4.3 | 0.00 | 0.00 | 0.00 | 76 | 1012.0 |
| 20260906035019 | 85 | 203 | 1.7 | 3.5 | 0.00 | 0.00 | 0.00 | 77 | 1011.9 |
| 20260906034539 | 85 | 203 | 1.7 | 4.3 | 0.00 | 0.00 | 0.00 | 77 | 1012.0 |
| 20260906034038 | 85 | 180 | 2.6 | 6.1 | 0.00 | 0.00 | 0.00 | 79 | 1012.0 |
| 20260906033519 | 84 | 225 | 1.7 | 5.2 | 0.00 | 0.00 | 0.00 | 81 | 1012.0 |
| 20260906033019 | 83 | 180 | 2.6 | 8.7 | 0.00 | 0.00 | 0.00 | 84 | 1011.9 |
| 20260906032519 | 81 | 45 | 0.9 | 5.2 | 0.00 | 0.00 | 0.00 | 86 | 1011.9 |
| 20260906032018 | 81 | 0.0 | 0.0 | 0.00 | 0.00 | 0.00 | 86 | 1011.7 | |
| 20260906031519 | 81 | 0.0 | 0.0 | 0.00 | 0.00 | 0.00 | 87 | 1011.7 | |
| 20260906031019 | 82 | 0.0 | 0.0 | 0.00 | 0.00 | 0.00 | 87 | 1011.7 | |
| 20260906030519 | 82 | 0.0 | 0.0 | 0.00 | 0.00 | 0.00 | 87 | 1011.5 | |
| 20260906030021 | 82 | 0.0 | 0.0 | 0.00 | 0.00 | 0.00 | 86 | 1011.6 | |
| 20260906025519 | 82 | 0.0 | 0.0 | 0.00 | 0.00 | 0.00 | 87 | 1011.6 | |
| 20260906025019 | 82 | 0.0 | 0.0 | 0.00 | 0.00 | 0.00 | 89 | 1011.6 | |
| 20260906024519 | 82 | 0.0 | 0.0 | 0.00 | 0.00 | 0.00 | 89 | 1011.5 | |
| 20260906024018 | 82 | 0.0 | 0.0 | 0.00 | 0.00 | 0.00 | 88 | 1011.6 | |
| 20260906023519 | 82 | 0.0 | 0.0 | 0.00 | 0.00 | 0.00 | 88 | 1011.3 | |
| 20260906023018 | 83 | 0.0 | 0.0 | 0.00 | 0.00 | 0.00 | 86 | 1011.3 | |
| 20260906022518 | 83 | 0.0 | 0.9 | 0.00 | 0.00 | 0.00 | 85 | 1011.3 | |
| 20260906022039 | 83 | 0.0 | 0.9 | 0.00 | 0.00 | 0.00 | 85 | 1011.4 | |
| 20260906021518 | 83 | 0.0 | 0.0 | 0.00 | 0.00 | 0.00 | 87 | 1011.3 | |
| 20260906021018 | 83 | 0.0 | 0.0 | 0.00 | 0.00 | 0.00 | 87 | 1011.3 | |
| 20260906020518 | 83 | 0.0 | 0.0 | 0.00 | 0.00 | 0.00 | 86 | 1011.2 | |
| 20260906020039 | 83 | 0.0 | 0.0 | 0.00 | 0.00 | 0.00 | 86 | 1011.2 | |
| 20260906015518 | 83 | 0.0 | 0.0 | 0.00 | 0.00 | 0.00 | 86 | 1011.0 | |
| 20260906015018 | 83 | 0.0 | 0.0 | 0.00 | 0.00 | 0.00 | 85 | 1010.9 | |
| 20260906014518 | 83 | 0.0 | 0.0 | 0.00 | 0.00 | 0.00 | 85 | 1010.7 | |
| 20260906014038 | 83 | 0.0 | 0.0 | 0.00 | 0.00 | 0.00 | 85 | 1010.7 | |
| 20260906013519 | 83 | 0.0 | 0.0 | 0.00 | 0.00 | 0.00 | 86 | 1010.7 | |
| 20260906013018 | 83 | 0.0 | 0.0 | 0.00 | 0.00 | 0.00 | 86 | 1010.6 | |
| 20260906012518 | 84 | 0.0 | 0.0 | 0.00 | 0.00 | 0.00 | 86 | 1010.6 | |
| 20260906012018 | 84 | 0.0 | 0.0 | 0.00 | 0.00 | 0.00 | 84 | 1010.5 | |
| 20260906011518 | 84 | 0.0 | 0.0 | 0.00 | 0.00 | 0.00 | 85 | 1010.4 | |
| 20260906011018 | 84 | 0.0 | 0.0 | 0.00 | 0.00 | 0.00 | 86 | 1010.3 | |
| 20260906010519 | 84 | 0.0 | 0.0 | 0.00 | 0.00 | 0.00 | 85 | 1010.3 | |
| 20260906010018 | 84 | 0.0 | 0.0 | 0.00 | 0.00 | 0.00 | 85 | 1010.2 | |
| 20260906005518 | 85 | 0.0 | 0.0 | 0.00 | 0.00 | 0.00 | 84 | 1010.2 | |
| 20260906005038 | 85 | 0.0 | 0.0 | 0.00 | 0.00 | 0.00 | 83 | 1010.3 | |
| 20260906004518 | 85 | 0.0 | 0.0 | 0.00 | 0.00 | 0.00 | 83 | 1010.2 | |
| 20260906004018 | 85 | 0.0 | 0.0 | 0.00 | 0.00 | 0.00 | 82 | 1010.2 | |
| 20260906003518 | 86 | 0.0 | 0.0 | 0.00 | 0.00 | 0.00 | 80 | 1010.1 | |
| 20260906003018 | 86 | 0.0 | 0.0 | 0.00 | 0.00 | 0.00 | 80 | 1010.1 | |
| 20260906002538 | 87 | 0.0 | 0.0 | 0.00 | 0.00 | 0.00 | 79 | 1010.1 | |
| 20260906002018 | 87 | 0.0 | 0.0 | 0.00 | 0.00 | 0.00 | 78 | 1010.1 | |
| 20260906001518 | 88 | 0.0 | 0.0 | 0.00 | 0.00 | 0.00 | 76 | 1010.1 | |
| 20260906001038 | 88 | 0.0 | 0.0 | 0.00 | 0.00 | 0.00 | 75 | 1010.1 | |
| 20260906000518 | 89 | 0.0 | 0.0 | 0.00 | 0.00 | 0.00 | 75 | 1010.1 | |
| 20260906000018 | 90 | 0.0 | 0.0 | 0.00 | 0.00 | 0.00 | 75 | 1010.0 | |
| 20260905235518 | 90 | 0.0 | 0.0 | 0.00 | 0.00 | 0.00 | 70 | 1010.0 | |
| 20260905235018 | 90 | 0.0 | 0.0 | 0.00 | 0.00 | 0.00 | 72 | 1010.0 | |
| 20260905234518 | 91 | 0.0 | 0.0 | 0.00 | 0.00 | 0.00 | 71 | 1010.0 | |
| 20260905234018 | 92 | 0.0 | 0.0 | 0.00 | 0.00 | 0.00 | 65 | 1010.1 | |
| 20260905233538 | 92 | 0.0 | 0.0 | 0.00 | 0.00 | 0.00 | 64 | 1010.1 | |
| 20260905233038 | 93 | 0.0 | 0.0 | 0.00 | 0.00 | 0.00 | 63 | 1010.1 | |
| 20260905232519 | 93 | 0.0 | 0.0 | 0.00 | 0.00 | 0.00 | 63 | 1010.0 | |
| 20260905232038 | 94 | 0.0 | 0.9 | 0.00 | 0.00 | 0.00 | 61 | 1010.0 | |
| 20260905231518 | 94 | 0.0 | 0.9 | 0.00 | 0.00 | 0.00 | 65 | 1010.1 | |
| 20260905231018 | 94 | 0.0 | 0.0 | 0.00 | 0.00 | 0.00 | 65 | 1010.1 | |
| 20260905230518 | 95 | 0.0 | 0.9 | 0.00 | 0.00 | 0.00 | 63 | 1010.1 | |
| 20260905230018 | 96 | 45 | 0.9 | 1.7 | 0.00 | 0.00 | 0.00 | 61 | 1010.0 |
| 20260905225518 | 96 | 0.0 | 0.9 | 0.00 | 0.00 | 0.00 | 59 | 1010.1 | |
| 20260905225020 | 95 | 0.0 | 0.0 | 0.00 | 0.00 | 0.00 | 58 | 1010.0 | |
| 20260905224520 | 95 | 0.0 | 0.0 | 0.00 | 0.00 | 0.00 | 60 | 1010.0 | |
| 20260905224020 | 94 | 0.0 | 0.9 | 0.00 | 0.00 | 0.00 | 63 | 1010.2 | |
| 20260905223520 | 94 | 0.0 | 2.6 | 0.00 | 0.00 | 0.00 | 60 | 1010.0 | |
| 20260905223019 | 94 | 0.0 | 0.9 | 0.00 | 0.00 | 0.00 | 59 | 1010.0 | |
| 20260905222539 | 94 | 0.0 | 0.9 | 0.00 | 0.00 | 0.00 | 58 | 1010.1 | |
| 20260905222020 | 95 | 45 | 0.9 | 2.6 | 0.00 | 0.00 | 0.00 | 57 | 1010.2 |
| 20260905221519 | 98 | 113 | 1.7 | 3.5 | 0.00 | 0.00 | 0.00 | 52 | 1010.3 |
| 20260905221020 | 99 | 113 | 2.6 | 3.5 | 0.00 | 0.00 | 0.00 | 49 | 1010.3 |
| 20260905220521 | 99 | 113 | 2.6 | 3.5 | 0.00 | 0.00 | 0.00 | 50 | 1010.3 |
| 20260905220020 | 98 | 113 | 2.6 | 5.2 | 0.00 | 0.00 | 0.00 | 50 | 1010.3 |
| 20260905215519 | 98 | 113 | 3.5 | 7.0 | 0.00 | 0.00 | 0.00 | 51 | 1010.4 |
| 20260905215020 | 98 | 113 | 4.3 | 6.1 | 0.00 | 0.00 | 0.00 | 51 | 1010.4 |
| 20260905214520 | 98 | 113 | 3.5 | 7.8 | 0.00 | 0.00 | 0.00 | 51 | 1010.3 |
| 20260905214020 | 98 | 135 | 2.6 | 6.1 | 0.00 | 0.00 | 0.00 | 50 | 1010.3 |
| 20260905213519 | 98 | 113 | 2.6 | 5.2 | 0.00 | 0.00 | 0.00 | 49 | 1010.4 |
| 20260905213019 | 99 | 113 | 1.7 | 3.5 | 0.00 | 0.00 | 0.00 | 48 | 1010.5 |
| 20260905212519 | 100 | 90 | 3.5 | 7.8 | 0.00 | 0.00 | 0.00 | 48 | 1010.5 |
| 20260905212019 | 100 | 113 | 5.2 | 8.7 | 0.00 | 0.00 | 0.00 | 48 | 1010.5 |
| 20260905211519 | 100 | 90 | 1.7 | 6.1 | 0.00 | 0.00 | 0.00 | 49 | 1010.5 |
| 20260905211019 | 100 | 113 | 0.9 | 2.6 | 0.00 | 0.00 | 0.00 | 48 | 1010.6 |
| 20260905210519 | 100 | 113 | 0.9 | 3.5 | 0.00 | 0.00 | 0.00 | 51 | 1010.5 |
| 20260905210019 | 100 | 180 | 1.7 | 6.1 | 0.00 | 0.00 | 0.00 | 48 | 1010.5 |
| 20260905205519 | 100 | 90 | 2.6 | 6.1 | 0.00 | 0.00 | 0.00 | 48 | 1010.5 |
| 20260905205019 | 100 | 113 | 1.7 | 4.3 | 0.00 | 0.00 | 0.00 | 48 | 1010.5 |
| 20260905204519 | 100 | 113 | 3.5 | 7.0 | 0.00 | 0.00 | 0.00 | 49 | 1010.7 |
| 20260905204039 | 100 | 113 | 0.9 | 3.5 | 0.00 | 0.00 | 0.00 | 52 | 1010.7 |
| 20260905203519 | 99 | 90 | 3.5 | 7.8 | 0.00 | 0.00 | 0.00 | 50 | 1010.9 |
| 20260905203040 | 100 | 113 | 4.3 | 7.8 | 0.00 | 0.00 | 0.00 | 49 | 1011.0 |
| 20260905202519 | 99 | 135 | 2.6 | 4.3 | 0.00 | 0.00 | 0.00 | 51 | 1011.0 |
| 20260905202019 | 99 | 135 | 3.5 | 7.0 | 0.00 | 0.00 | 0.00 | 52 | 1011.0 |
| 20260905201519 | 99 | 158 | 1.7 | 4.3 | 0.00 | 0.00 | 0.00 | 51 | 1010.9 |
| 20260905201019 | 99 | 158 | 1.7 | 4.3 | 0.00 | 0.00 | 0.00 | 53 | 1011.1 |
| 20260905200519 | 99 | 225 | 1.7 | 3.5 | 0.00 | 0.00 | 0.00 | 52 | 1011.2 |
| 20260905200019 | 98 | 113 | 3.5 | 7.0 | 0.00 | 0.00 | 0.00 | 53 | 1011.3 |
| 20260905195519 | 99 | 270 | 1.7 | 6.1 | 0.00 | 0.00 | 0.00 | 52 | 1011.5 |
| 20260905195039 | 98 | 270 | 1.7 | 4.3 | 0.00 | 0.00 | 0.00 | 51 | 1011.5 |
| 20260905194519 | 98 | 158 | 2.6 | 5.2 | 0.00 | 0.00 | 0.00 | 53 | 1011.6 |
| 20260905194019 | 98 | 158 | 1.7 | 4.3 | 0.00 | 0.00 | 0.00 | 55 | 1011.7 |
| 20260905193519 | 97 | 180 | 1.7 | 4.3 | 0.00 | 0.00 | 0.00 | 56 | 1011.7 |
| 20260905193019 | 96 | 158 | 1.7 | 2.6 | 0.00 | 0.00 | 0.00 | 60 | 1011.9 |
| 20260905192519 | 96 | 158 | 2.6 | 5.2 | 0.00 | 0.00 | 0.00 | 58 | 1012.0 |
| 20260905192019 | 96 | 113 | 2.6 | 5.2 | 0.00 | 0.00 | 0.00 | 57 | 1012.1 |
| 20260905191539 | 96 | 113 | 3.5 | 6.1 | 0.00 | 0.00 | 0.00 | 57 | 1012.1 |
| 20260905191039 | 96 | 158 | 3.5 | 7.0 | 0.00 | 0.00 | 0.00 | 56 | 1012.2 |
| 20260905190519 | 96 | 113 | 2.6 | 7.8 | 0.00 | 0.00 | 0.00 | 54 | 1012.2 |
| 20260905190019 | 97 | 113 | 1.7 | 3.5 | 0.00 | 0.00 | 0.00 | 55 | 1012.3 |
| 20260905185519 | 98 | 315 | 1.7 | 6.1 | 0.00 | 0.00 | 0.00 | 54 | 1012.3 |
| 20260905185019 | 98 | 135 | 1.7 | 6.1 | 0.00 | 0.00 | 0.00 | 53 | 1012.3 |
| 20260905184519 | 98 | 113 | 2.6 | 6.1 | 0.00 | 0.00 | 0.00 | 54 | 1012.4 |
| 20260905184039 | 98 | 135 | 2.6 | 4.3 | 0.00 | 0.00 | 0.00 | 52 | 1012.4 |
| 20260905183519 | 97 | 315 | 0.9 | 4.3 | 0.00 | 0.00 | 0.00 | 56 | 1012.6 |
| 20260905183019 | 98 | 315 | 1.7 | 3.5 | 0.00 | 0.00 | 0.00 | 53 | 1012.7 |
| 20260905182519 | 97 | 0 | 1.7 | 5.2 | 0.00 | 0.00 | 0.00 | 52 | 1012.7 |
| 20260905182019 | 97 | 23 | 0.9 | 4.3 | 0.00 | 0.00 | 0.00 | 56 | 1012.7 |
| 20260905181519 | 95 | 23 | 1.7 | 3.5 | 0.00 | 0.00 | 0.00 | 57 | 1012.6 |
| 20260905181019 | 96 | 23 | 0.9 | 2.6 | 0.00 | 0.00 | 0.00 | 54 | 1012.7 |
| 20260905180539 | 97 | 68 | 1.7 | 2.6 | 0.00 | 0.00 | 0.00 | 53 | 1012.8 |
| 20260905180019 | 98 | 90 | 0.9 | 3.5 | 0.00 | 0.00 | 0.00 | 53 | 1012.8 |
| 20260905175518 | 97 | 90 | 0.9 | 2.6 | 0.00 | 0.00 | 0.00 | 56 | 1012.9 |
| 20260905175019 | 96 | 23 | 0.9 | 4.3 | 0.00 | 0.00 | 0.00 | 57 | 1013.0 |
| 20260905174519 | 96 | 90 | 0.9 | 3.5 | 0.00 | 0.00 | 0.00 | 59 | 1013.0 |
| 20260905174019 | 96 | 158 | 1.7 | 4.3 | 0.00 | 0.00 | 0.00 | 56 | 1013.1 |
| 20260905173519 | 97 | 113 | 1.7 | 5.2 | 0.00 | 0.00 | 0.00 | 54 | 1013.1 |
| 20260905173018 | 96 | 113 | 1.7 | 5.2 | 0.00 | 0.00 | 0.00 | 54 | 1013.0 |
| 20260905172518 | 96 | 0 | 1.7 | 4.3 | 0.00 | 0.00 | 0.00 | 56 | 1013.1 |
| 20260905172018 | 97 | 338 | 1.7 | 4.3 | 0.00 | 0.00 | 0.00 | 57 | 1013.2 |
| 20260905171518 | 97 | 315 | 0.9 | 1.7 | 0.00 | 0.00 | 0.00 | 55 | 1013.3 |
| 20260905171038 | 96 | 315 | 1.7 | 3.5 | 0.00 | 0.00 | 0.00 | 55 | 1013.3 |
| 20260905170518 | 96 | 0 | 1.7 | 3.5 | 0.00 | 0.00 | 0.00 | 57 | 1013.4 |
| 20260905170018 | 96 | 0 | 1.7 | 5.2 | 0.00 | 0.00 | 0.00 | 56 | 1013.5 |
| 20260905165539 | 95 | 0.0 | 1.7 | 0.00 | 0.00 | 0.00 | 58 | 1013.5 | |
| 20260905165018 | 96 | 113 | 1.7 | 3.5 | 0.00 | 0.00 | 0.00 | 57 | 1013.6 |
| 20260905164539 | 95 | 90 | 2.6 | 3.5 | 0.00 | 0.00 | 0.00 | 58 | 1013.6 |
| 20260905164019 | 95 | 113 | 0.9 | 3.5 | 0.00 | 0.00 | 0.00 | 60 | 1013.7 |
| 20260905163559 | 95 | 90 | 0.9 | 2.6 | 0.00 | 0.00 | 0.00 | 58 | 1013.8 |
| 20260905163018 | 95 | 90 | 2.6 | 7.0 | 0.00 | 0.00 | 0.00 | 61 | 1013.9 |
| 20260905162539 | 94 | 113 | 1.7 | 7.0 | 0.00 | 0.00 | 0.00 | 62 | 1013.8 |
| 20260905162018 | 95 | 113 | 1.7 | 4.3 | 0.00 | 0.00 | 0.00 | 61 | 1014.0 |
| 20260905161518 | 94 | 225 | 1.7 | 4.3 | 0.00 | 0.00 | 0.00 | 66 | 1014.0 |
| 20260905161019 | 93 | 225 | 1.7 | 3.5 | 0.00 | 0.00 | 0.00 | 64 | 1014.0 |
| 20260905160519 | 93 | 225 | 2.6 | 4.3 | 0.00 | 0.00 | 0.00 | 67 | 1014.2 |
| 20260905160018 | 93 | 158 | 1.7 | 3.5 | 0.00 | 0.00 | 0.00 | 66 | 1014.1 |
| 20260905155518 | 92 | 158 | 0.9 | 2.6 | 0.00 | 0.00 | 0.00 | 71 | 1014.0 |
| 20260905155018 | 92 | 0.0 | 1.7 | 0.00 | 0.00 | 0.00 | 67 | 1014.1 | |
| 20260905154518 | 91 | 135 | 0.9 | 1.7 | 0.00 | 0.00 | 0.00 | 68 | 1014.2 |
| 20260905154018 | 91 | 158 | 0.9 | 2.6 | 0.00 | 0.00 | 0.00 | 69 | 1014.2 |
| 20260905153518 | 91 | 158 | 0.9 | 1.7 | 0.00 | 0.00 | 0.00 | 70 | 1014.2 |
| 20260905153018 | 91 | 158 | 0.9 | 1.7 | 0.00 | 0.00 | 0.00 | 69 | 1014.2 |
| 20260905152518 | 90 | 158 | 1.7 | 4.3 | 0.00 | 0.00 | 0.00 | 72 | 1014.2 |
| 20260905152038 | 90 | 270 | 0.9 | 1.7 | 0.00 | 0.00 | 0.00 | 72 | 1014.2 |
| 20260905151518 | 89 | 293 | 1.7 | 2.6 | 0.00 | 0.00 | 0.00 | 73 | 1014.1 |
| 20260905151018 | 89 | 293 | 0.9 | 1.7 | 0.00 | 0.00 | 0.00 | 73 | 1014.1 |
| 20260905150518 | 88 | 0.0 | 0.9 | 0.00 | 0.00 | 0.00 | 72 | 1014.2 | |
| 20260905150018 | 88 | 293 | 0.9 | 1.7 | 0.00 | 0.00 | 0.00 | 73 | 1014.2 |
| 20260905145518 | 88 | 0.0 | 0.9 | 0.00 | 0.00 | 0.00 | 74 | 1014.2 | |
| 20260905145018 | 87 | 0.0 | 0.9 | 0.00 | 0.00 | 0.00 | 75 | 1014.2 | |
| 20260905144618 | 87 | 293 | 0.9 | 1.7 | 0.00 | 0.00 | 0.00 | 74 | 1014.3 |
| 20260905144018 | 87 | 293 | 0.9 | 2.6 | 0.00 | 0.00 | 0.00 | 74 | 1014.3 |
| 20260905143518 | 87 | 293 | 0.9 | 3.5 | 0.00 | 0.00 | 0.00 | 74 | 1014.3 |
| 20260905143019 | 87 | 270 | 0.9 | 1.7 | 0.00 | 0.00 | 0.00 | 75 | 1014.3 |
| 20260905142518 | 86 | 0.0 | 1.7 | 0.00 | 0.00 | 0.00 | 76 | 1014.4 | |
| 20260905142038 | 86 | 270 | 0.9 | 1.7 | 0.00 | 0.00 | 0.00 | 79 | 1014.3 |
| 20260905141518 | 85 | 270 | 0.9 | 2.6 | 0.00 | 0.00 | 0.00 | 79 | 1014.2 |
| 20260905141018 | 85 | 270 | 0.9 | 2.6 | 0.00 | 0.00 | 0.00 | 80 | 1014.3 |